Regional Weather Roundup
Issued by NWS

Home | Current Version | Previous Version | Graphics & Text | Print | Product List | Glossary On
Versions: 1 2 3 4 5 6 7 8 9 10 11 12 13 14 15 16 17 18 19 20 21 22 23 24 25 26 27 28 29 30 31 32 33 34 35 36 37 38 39 40 41 42 43 44 45 46 47 48 49 50
000
ASUS43 KIND 190600
RWRIN

WEATHER ROUNDUP FOR INDIANA
NATIONAL WEATHER SERVICE INDIANAPOLIS IN
200 AM EDT TUE SEP 19 2017

NOTE: "FAIR" INDICATES FEW OR NO CLOUDS BELOW 12,000 FEET WITH NO
SIGNIFICANT WEATHER AND/OR OBSTRUCTIONS TO VISIBILITY.

* - STATION DOES NOT REPORT WEATHER SUCH AS PRECIPITATION OR FOG.

+ - STATION NOT QUALITY CONTROLLED BY THE NATIONAL WEATHER SERVICE.
    USE DATA WITH CAUTION...ESPECIALLY DEWPOINT AND RELATIVE
    HUMIDITY OBSERVATIONS.

INZ001>003-010>013-019-020-190700-
NORTHWEST INDIANA

CITY           SKY/WX    TMP DP  RH WIND       PRES   REMARKS
MICHIGAN CITY+ MIX PCPN  63  61  94 E3        29.97F
RENSSELAER +   TSTM      66  63  88 E3        29.94F

$$

LMZ046-743>745-190700-
SOUTHERN LAKE MICHIGAN

STATION/POSITION TIME  TEMP    WIND        PRES    WAVE
                       AIR SEA DIR/SP/G            HT
                 (UTC) (F)     (DEG/KT/KT) (MB)    (FT)
BURNS HARBOR     0540   67      80/  5/  6 1014.9F
MICHIGAN CITY    0530   67     100/  4/  5   N/A
5NW MICH CITY    0550   67 68   90/  6/  8   N/A     2

$$

INZ004-005-014>016-021>024-190700-
NORTH CENTRAL INDIANA

CITY           SKY/WX    TMP DP  RH WIND       PRES   REMARKS
GOSHEN         PTCLDY    65  59  81 E6        29.99S
6HR MIN TEMP:  64; 6HR MAX TEMP:  70; 6HR PCP: TRACE;

SOUTH BEND     CLOUDY    67  58  72 E6        29.98F
6HR MIN TEMP:  66; 6HR MAX TEMP:  72;


$$

INZ006>009-017-018-025>027-190700-
NORTHEAST INDIANA

CITY           SKY/WX    TMP DP  RH WIND       PRES   REMARKS
FORT WAYNE     CLOUDY    66  63  90 E6        30.00S FOG
6HR MIN TEMP:  65; 6HR MAX TEMP:  73;

KENDALLVILLE + CLOUDY    67  67 100 SE6       30.02R FOG

$$

INZ028-029-035-036-043>045-051>053-190700-
WEST CENTRAL INDIANA

CITY           SKY/WX    TMP DP  RH WIND       PRES   REMARKS
LAFAYETTE      CLOUDY    70  67  90 S5        29.94F
6HR MIN TEMP:  69; 6HR MAX TEMP:  74;

TERRE HAUTE    CLOUDY    70  67  90 S3        29.96F
6HR MIN TEMP:  70; 6HR MAX TEMP:  75; 6HR PCP: TRACE;


$$

INZ030>032-037>040-046>048-054>057-064-065-190700-
CENTRAL INDIANA

CITY           SKY/WX    TMP DP  RH WIND       PRES   REMARKS
INDIANAPOLIS   CLOUDY    71  68  90 S5        29.96F
6HR MIN TEMP:  70; 6HR MAX TEMP:  73; 6HR PCP:  0.15;

-EAGLE CREEK   CLOUDY    69  68  96 CALM      29.96F FOG
6HR MIN TEMP:  69; 6HR MAX TEMP:  76; 6HR PCP:  0.14;

KOKOMO +       LGT RAIN  69  67  93 E8        29.97F
6HR MIN TEMP:  68; 6HR MAX TEMP:  73; 6HR PCP: TRACE;

MT COMFORT *+    N/A    N/A N/A N/A MISG        N/A
SHELBYVILLE    CLOUDY    70  66  87 SE3       29.97F
6HR MIN TEMP:  69; 6HR MAX TEMP:  76;


$$

INZ033-034-041-042-049-050-058-059-190700-
EAST CENTRAL INDIANA

CITY           SKY/WX    TMP DP  RH WIND       PRES   REMARKS
MUNCIE         CLOUDY    69  66  90 SE3       29.99S
6HR MIN TEMP:  69; 6HR MAX TEMP:  77; 6HR PCP:  0.01;

RICHMOND +     LGT SNOW  64  64 100 SE3       30.01S

$$

INZ060-061-067>069-081>083-085>088-190700-
SOUTHWEST INDIANA

CITY           SKY/WX    TMP DP  RH WIND       PRES   REMARKS
EVANSVILLE     CLOUDY    68  66  93 CALM      29.96S
6HR MIN TEMP:  68; 6HR MAX TEMP:  72; 6HR PCP: TRACE;

HUNTINGBURG +    N/A    N/A N/A N/A MISG        N/A

$$

INZ062-063-066-070>080-084-089>092-190700-
SOUTH CENTRAL AND SOUTHEAST INDIANA

CITY           SKY/WX    TMP DP  RH WIND       PRES   REMARKS
BLOOMINGTON    CLOUDY    71  67  87 CALM      29.98S
6HR MIN TEMP:  68; 6HR MAX TEMP:  76;

MADISON *+     CLOUDY    68  64  88 CALM      30.00F
SEYMOUR +      MOCLDY    70  68  94 CALM      29.98S

$$




USA.gov is the U.S. government's official web portal to all federal, state and local government web resources and services.